TimeCDT,TemperatureF,Dew PointF,Humidity,Sea Level PressureIn,VisibilityMPH,Wind Direction,Wind SpeedMPH,Gust SpeedMPH,PrecipitationIn,Events,Conditions,WindDirDegrees,DateUTC
12:53 AM,79.0,73.9,84,30.01,10.0,NNE,4.6,-,N/A,,Clear,30,2013-08-01 05:53:00
1:53 AM,77.0,73.9,90,29.99,10.0,Calm,Calm,-,N/A,,Clear,0,2013-08-01 06:53:00
2:53 AM,77.0,73.9,90,29.99,10.0,Calm,Calm,-,N/A,,Clear,0,2013-08-01 07:53:00
3:53 AM,77.0,73.9,90,29.99,10.0,Calm,Calm,-,N/A,,Clear,0,2013-08-01 08:53:00
4:53 AM,77.0,73.0,88,30.01,10.0,Calm,Calm,-,N/A,,Clear,0,2013-08-01 09:53:00
5:53 AM,75.9,72.0,87,30.02,10.0,North,3.5,-,N/A,,Partly Cloudy,10,2013-08-01 10:53:00
6:53 AM,75.9,73.0,91,30.04,10.0,North,3.5,-,N/A,,Mostly Cloudy,10,2013-08-01 11:53:00
7:53 AM,78.1,71.1,79,30.04,10.0,NE,6.9,-,N/A,,Mostly Cloudy,50,2013-08-01 12:53:00
8:53 AM,80.1,71.1,74,30.05,10.0,East,8.1,-,N/A,,Clear,80,2013-08-01 13:53:00
9:53 AM,82.9,73.0,72,30.06,10.0,NE,6.9,-,N/A,,Clear,50,2013-08-01 14:53:00
10:53 AM,84.9,73.0,67,30.05,10.0,ENE,6.9,-,N/A,,Clear,70,2013-08-01 15:53:00
11:53 AM,88.0,73.0,61,30.05,10.0,NE,5.8,-,N/A,,Clear,50,2013-08-01 16:53:00
12:53 PM,90.0,72.0,55,30.04,10.0,NNE,4.6,-,N/A,,Clear,30,2013-08-01 17:53:00
1:53 PM,91.0,71.1,52,30.02,10.0,Calm,Calm,-,N/A,,Clear,0,2013-08-01 18:53:00
2:53 PM,91.9,71.1,50,30.00,10.0,NNE,5.8,-,N/A,,Clear,30,2013-08-01 19:53:00
3:53 PM,93.0,69.1,45,29.99,10.0,Variable,4.6,-,N/A,,Clear,0,2013-08-01 20:53:00
4:53 PM,93.0,68.0,44,29.97,10.0,NE,4.6,-,N/A,,Clear,40,2013-08-01 21:53:00
5:53 PM,91.9,66.0,42,29.95,10.0,ENE,8.1,-,N/A,,Clear,70,2013-08-01 22:53:00
6:53 PM,91.0,64.9,42,29.94,10.0,ENE,6.9,-,N/A,,Clear,70,2013-08-01 23:53:00
7:53 PM,88.0,66.9,49,29.94,10.0,ENE,3.5,-,N/A,,Clear,70,2013-08-02 00:53:00
8:53 PM,82.9,69.1,63,29.94,10.0,Calm,Calm,-,N/A,,Clear,0,2013-08-02 01:53:00
9:53 PM,81.0,70.0,69,29.96,10.0,Calm,Calm,-,N/A,,Clear,0,2013-08-02 02:53:00
10:53 PM,82.0,69.1,65,29.95,10.0,Calm,Calm,-,N/A,,Clear,0,2013-08-02 03:53:00
11:53 PM,79.0,72.0,79,29.96,10.0,ENE,3.5,-,N/A,,Clear,60,2013-08-02 04:53:00